Location: Udine
(46.0620°N, 13.2420°E)
Time: 02:23:45
(UTC+02:00)

ISS - Pass Details

Date: 17 May 2021
Orbit: 417 x 422 km, 51.6° (Epoch: 14 June)

Event Time Altitude Azimuth Distance (km) Brightness Sun altitude
Rises 22:03:04 0° 246° (WSW) 2,356 0.3 -12.8°
Reaches altitude 10° 22:05:10 10° 249° (WSW) 1,495 -0.7 -13.0°
Maximum altitude 22:08:31 74° 335° (NNW) 441 -3.5 -13.4°
Drops below altitude 10° 22:11:53 10° 60° (ENE) 1,505 -1.1 -13.8°
Sets 22:14:00 0° 63° (ENE) 2,372 -0.1 -14.0°
